Regional Weather Roundup
Issued by NWS Little Rock, AR

Home | Current Version | Previous Version | Graphics & Text | Print | Product List | Glossary On
Versions: 1 2 3 4 5 6 7 8 9 10 11 12 13 14 15 16 17 18 19 20 21 22 23 24 25 26
711
ASUS44 KLZK 211005
RWRLZK

WEATHER ROUNDUP FOR ARKANSAS
NATIONAL WEATHER SERVICE LITTLE ROCK AR
500 AM CDT THU MAY 21 2015

NOTE: "FAIR" INDICATES FEW OR NO CLOUDS BELOW 12,000 FEET WITH NO
SIGNIFICANT WEATHER AND/OR OBSTRUCTIONS TO VISIBILITY.

ARZ001-003-010-029-211100-
NORTHWEST ARKANSAS

CITY           SKY/WX    TMP DP  RH WIND       PRES   REMARKS
FAYETTEVILLE   PTCLDY    49  47  93 N7        30.20R
FORT SMITH     CLOUDY    57  48  72 N13       30.16F
HARRISON       CLOUDY    48  45  89 N6        30.19R
BENTONVILLE    CLEAR    N/A N/A N/A N8        30.20R
ROGERS         CLEAR     46  45  96 N5        30.21S
SILOAM SPGS    MOCLDY    46  41  81 N6        30.22R
HIGHFILL       CLEAR     48  45  89 N6        30.20R
$$

ARZ004-005-016-211100-
NORTH CENTRAL ARKANSAS

CITY           SKY/WX    TMP DP  RH WIND       PRES   REMARKS
BATESVILLE     MOCLDY    52  46  82 N6        30.16R
FLIPPIN        CLOUDY    52  46  82 N6        30.17R
MTN HOME       CLOUDY    50  46  86 N3        30.18R
$$

ARZ040-041-211100-
WEST CENTRAL ARKANSAS

CITY           SKY/WX    TMP DP  RH WIND       PRES   REMARKS
MENA           CLOUDY    59  54  82 NE10      30.14R
MOUNT IDA      CLOUDY    61  54  77 CALM      30.11R
$$

ARZ009-017-025-026-028-211100-
NORTHEAST ARKANSAS

CITY           SKY/WX    TMP DP  RH WIND       PRES   REMARKS
CORNING        CLOUDY    50  46  87 N14       30.16S
JONESBORO      CLOUDY    51  47  86 N12       30.15R
NEWPORT        CLOUDY    53  48  83 N16       30.16R
WALNUT RIDGE   MOCLDY    50  45  81 N15       30.16R
BLYTHEVILLE    CLOUDY    51  48  89 N13       30.14R
$$

ARZ022-023-033-042-044-211100-
CENTRAL ARKANSAS

CITY           SKY/WX    TMP DP  RH WIND       PRES   REMARKS
LITTLE ROCK    CLOUDY    61  53  75 N14       30.12R
N LITTLE ROCK    N/A     58  55  89 N8G16     30.12R
JACKSONVILLE   CLOUDY    58  55  91 N7        30.12R
SEARCY         CLOUDY    57  51  80 N7        30.15R
HOT SPRINGS    CLOUDY    62  53  72 NE6       30.11S
RUSSELLVILLE   CLOUDY    58  48  69 N12G20    30.16R
CLINTON        CLOUDY    55  48  76 N3        30.17F
$$

ARZ036-211100-
EAST ARKANSAS

CITY           SKY/WX    TMP DP  RH WIND       PRES   REMARKS
WEST MEMPHIS   CLOUDY    55  51  86 N12       30.10S FOG
$$

ARZ050-053-066-070-073-211100-
SOUTHWEST ARKANSAS

CITY           SKY/WX    TMP DP  RH WIND       PRES   REMARKS
ARKADELPHIA    CLOUDY    63  62  96 N5        30.11R
CAMDEN         CLOUDY    64  57  77 N9        30.07S
TEXARKANA      LGT RAIN  61  57  87 E9        30.05F
EL DORADO      CLOUDY    66  60  81 N9        30.06F
DE QUEEN       CLOUDY    60  56  86 N3        30.09R
$$

ARZ056-057-069-211100-
SOUTHEAST ARKANSAS

CITY           SKY/WX    TMP DP  RH WIND       PRES   REMARKS
PINE BLUFF     CLOUDY    63  57  81 N14       30.09S
STUTTGART      CLOUDY    59  54  82 NE13      30.11R
MONTICELLO     PTCLDY    66  60  81 VRB3      30.06S

$$





USA.gov is the U.S. government's official web portal to all federal, state and local government web resources and services.